{"data":{"norad_id":57727,"epoch":"2026-05-25T01:34:01.729920Z","epoch_age_seconds":72430,"freshness":"FRESH","line1":"1 57727U 23130A   26145.06529780  .00009557  00000+0  39615-3 0  9994","line2":"2 57727  35.0026 274.1562 0003016 288.3886  71.6500 15.23133629152187","mean_motion":15.23133629,"eccentricity":0.0003016,"inclination_deg":35.0026,"raan_deg":274.1562,"arg_perigee_deg":288.3886,"mean_anomaly_deg":71.65,"bstar":0.00039615,"rev_number":15218,"period_min":94.541934639406,"perigee_km":494.32214978109,"apogee_km":498.4688677904,"semimajor_km":6874.5325087857,"source":"CELESTRAK","updated_at":"2026-05-25T13:38:00.223104Z"}}